Total_Precipitation_Accumulation
1.51 1.55 1.57 1.43 1.32 1.28 1.33 1.53 1.83 1.61 1.03 0.78 0.79 0.84 0.92 1.03 1.24 1.13 1.06 1.15 1.22 1.31 1.42 1.49 1.56 1.68 1.95 2.54 3.50 4.83 5.44 4.75 3.85 3.60 3.63 3.83 4.15 4.57
1.39 1.48 1.54 1.48 1.38 1.32 1.36 1.40 1.52 1.71 1.41 0.84 0.76 0.80 0.93 0.99 1.12 1.03 1.05 1.23 1.22 1.27 1.34 1.40 1.47 1.54 1.68 1.95 2.47 3.30 4.48 5.14 4.74 4.10 3.85 4.02 4.17 4.36
1.32 1.35 1.38 1.40 1.42 1.35 1.34 1.36 1.34 1.40 1.40 0.89 0.72 0.76 0.94 1.04 1.03 0.98 1.02 1.07 1.10 1.23 1.27 1.31 1.38 1.47 1.65 1.83 2.10 2.54 3.20 4.15 4.81 4.69 4.30 4.13 4.10 4.10
1.27 1.26 1.26 1.30 1.37 1.31 1.27 1.24 1.20 1.15 1.20 1.02 0.78 0.76 0.84 0.93 1.04 1.13 1.11 1.09 1.04 1.16 1.20 1.29 1.42 1.47 1.56 1.75 1.98 2.27 2.62 3.13 3.82 4.35 4.42 4.19 3.99 3.98
1.25 1.25 1.21 1.27 1.34 1.29 1.27 1.21 1.11 1.03 1.03 1.04 0.87 0.77 0.82 0.87 1.05 1.22 1.23 1.23 1.17 1.19 1.23 1.29 1.39 1.48 1.55 1.66 1.88 2.10 2.26 2.43 2.82 3.56 4.11 4.05 3.92 3.83
1.18 1.15 1.17 1.29 1.32 1.34 1.38 1.28 1.20 1.19 1.18 1.21 1.07 0.93 0.94 0.97 1.16 1.41 1.50 1.46 1.40 1.25 1.30 1.34 1.43 1.55 1.57 1.56 1.62 1.74 1.87 2.15 2.46 2.88 3.48 3.85 3.74 3.69
1.13 1.11 1.17 1.32 1.38 1.54 1.67 1.55 1.51 1.59 1.55 1.53 1.41 1.29 1.23 1.27 1.36 1.41 1.57 1.59 1.58 1.42 1.32 1.25 1.28 1.30 1.38 1.48 1.54 1.60 1.71 1.87 2.14 2.45 2.84 3.29 3.59 3.65
1.17 1.11 1.11 1.25 1.29 1.41 1.60 1.68 1.74 1.85 1.91 1.88 1.77 1.63 1.38 1.30 1.35 1.49 1.57 1.76 1.83 1.52 1.44 1.39 1.33 1.41 1.36 1.37 1.58 1.60 1.66 1.80 1.97 2.20 2.47 2.75 3.13 3.53
1.14 1.13 1.13 1.18 1.25 1.23 1.35 1.41 1.45 1.59 1.81 1.92 1.97 1.58 1.37 1.31 1.54 1.74 1.69 1.77 1.74 1.64 1.77 1.73 1.44 1.47 1.40 1.51 1.71 1.63 1.61 1.70 1.82 1.96 2.16 2.38 2.64 2.98
1.11 1.10 1.10 1.13 1.23 1.43 1.40 1.35 1.25 1.26 1.46 1.66 1.92 1.75 1.56 1.59 1.92 2.24 2.31 2.19 1.80 1.60 1.78 1.99 1.55 1.44 1.49 1.59 1.75 1.67 1.57 1.57 1.66 1.80 1.94 2.09 2.28 2.54
1.10 1.07 1.09 1.09 1.35 1.62 1.53 1.38 1.20 1.10 1.21 1.54 1.85 1.99 2.04 2.16 2.39 2.71 2.86 2.68 2.22 1.69 1.67 1.94 1.74 1.55 1.69 1.88 1.94 1.84 1.59 1.53 1.58 1.69 1.75 1.79 1.97 2.26
1.14 1.09 1.22 1.30 1.49 1.63 1.49 1.45 1.53 1.30 1.15 1.19 1.28 1.39 1.48 1.65 2.04 2.34 2.64 2.72 2.37 2.14 1.79 1.88 2.00 1.99 2.25 2.12 1.98 1.77 1.58 1.54 1.56 1.61 1.64 1.62 1.74 1.77
1.18 1.14 1.12 1.36 1.46 1.54 1.56 1.52 1.75 1.64 1.36 1.36 1.32 1.26 1.25 1.36 1.57 1.88 2.29 2.63 2.64 2.34 1.92 2.20 2.50 2.29 2.36 2.21 2.08 1.99 1.66 1.45 1.42 1.54 1.63 1.65 1.67 1.65
1.11 1.00 1.06 1.29 1.38 1.50 1.48 1.57 1.70 1.63 1.43 1.38 1.29 1.23 1.24 1.29 1.38 1.55 1.88 2.14 2.26 2.14 1.84 2.18 2.78 2.54 2.41 2.12 2.03 2.13 1.91 1.60 1.43 1.41 1.46 1.73 1.71 1.64
1.10 1.18 1.26 1.36 1.37 1.30 1.37 1.46 1.45 1.38 1.46 1.45 1.30 1.21 1.22 1.34 1.40 1.45 1.59 1.86 2.02 1.99 1.92 2.00 2.40 2.52 2.53 2.32 1.96 1.97 2.06 1.94 1.63 1.52 1.48 1.51 1.46 1.40
1.28 1.33 1.40 1.38 1.28 1.19 1.23 1.24 1.19 1.29 1.44 1.43 1.29 1.17 1.15 1.26 1.41 1.51 1.61 1.75 1.96 1.98 1.94 2.01 2.28 2.67 2.66 2.17 1.99 1.94 1.85 2.03 1.89 1.68 1.54 1.48 1.36 1.19
1.46 1.52 1.44 1.35 1.31 1.20 1.09 1.04 1.08 1.24 1.36 1.27 1.25 1.22 1.19 1.22 1.29 1.40 1.62 1.76 1.91 1.93 1.98 2.13 2.29 2.51 2.62 2.53 2.36 1.99 1.73 1.68 1.74 1.72 1.65 1.66 1.57 1.33
1.65 1.56 1.34 1.19 1.14 1.11 1.08 1.06 1.02 1.05 1.11 1.19 1.23 1.23 1.23 1.25 1.27 1.29 1.45 1.70 1.84 1.85 1.91 2.05 2.23 2.47 2.65 2.76 2.60 2.18 1.82 1.66 1.72 1.78 1.74 1.81 1.85 1.60
1.53 1.31 1.12 1.05 1.02 1.00 0.99 0.98 0.95 0.90 0.94 1.04 1.10 1.14 1.20 1.24 1.27 1.28 1.34 1.49 1.67 1.79 1.89 2.00 2.17 2.41 2.58 2.68 2.75 2.42 2.11 1.83 1.79 1.97 1.98 1.90 1.88 1.74
1.27 1.16 1.08 1.00 0.98 1.01 1.01 1.00 0.96 0.92 0.95 0.98 1.01 1.03 1.12 1.22 1.24 1.23 1.26 1.40 1.55 1.67 1.77 1.88 2.11 2.39 2.62 2.54 2.60 2.60 2.49 2.18 1.96 2.08 2.14 2.03 1.93 1.89
1.12 1.10 1.06 1.04 1.02 1.02 1.04 1.04 1.03 1.01 0.97 0.97 0.98 0.98 1.00 1.10 1.14 1.11 1.15 1.29 1.46 1.57 1.66 1.67 1.83 2.12 2.36 2.39 2.32 2.29 2.47 2.54 2.22 2.18 2.23 2.25 2.20 2.12
1.03 1.07 1.07 1.07 1.07 1.08 1.08 1.09 1.07 1.01 0.97 0.97 0.94 0.93 0.95 1.00 1.04 1.06 1.12 1.20 1.26 1.37 1.50 1.56 1.67 1.94 2.26 2.46 2.37 2.21 2.30 2.47 2.49 2.33 2.27 2.34 2.52 2.59
1.14 1.11 1.09 1.09 1.09 1.10 1.11 1.08 1.05 0.98 0.91 0.91 0.91 0.90 0.93 0.97 0.97 1.00 1.05 1.11 1.19 1.25 1.35 1.51 1.64 1.82 2.08 2.29 2.39 2.29 2.19 2.23 2.33 2.37 2.52 2.37 2.01 1.84